Weather History for Albany, NY

Change the Weather History Date:

Saturday, October 6, 2012

  Actual Average Record
Temperature  
Mean Temperature 57 °F 53 °F  
Max Temperature 69 °F 64 °F 90 °F (1900)
Min Temperature 44 °F 43 °F 24 °F (1958)
Degree Days  
Heating Degree Days 8 12  
Month to date heating degree days 31 66  
Since 1 July heating degree days 159 233  
Cooling Degree Days 0 0  
Month to date cooling degree days 0 0  
Year to date cooling degree days 814 594  
Growing Degree Days 8 (Base 50)    
Moisture  
Dew Point 52 °F    
Average Humidity 81    
Maximum Humidity 100    
Minimum Humidity 61    
Precipitation  
Precipitation T in 0.12 in 2.87 in (1932)
Month to date precipitation 0.28 0.72  
Year to date precipitation 28.95 30.17  
Snow  
Snow 0.00 in 0.00 in 0.00 in ()
Month to date snowfall 0.0 0.0  
Since 1 July snowfall 0.0 0.0  
Since 1 September snowfall 0.0 0.0  
Snow Depth 0.00 in    
Sea Level Pressure  
Sea Level Pressure 29.85 in    
Wind  
Wind Speed 9 mph (WSW)    
Max Wind Speed 20 mph    
Max Gust Speed 28 mph    
Visibility 8 miles    
Events Fog , Rain    
T = Trace of Precipitation, MM = Missing Value Source: NWS Daily Summary

Daily Weather History Graph

Daily Weather History Graph

Search for Another Location

Airport:

Trip Planner

Search our weather history database for the weather conditions in past years. The results will help you decide how hot, cold, wet, or windy it might be!

Date:

Astronomy

Oct. 06, 2012 Rise Set
Actual Time 6:58 AM EDT 6:27 PM EDT
Civil Twilight 6:30 AM EDT 6:55 PM EDT
Nautical Twilight 5:57 AM EDT 7:27 PM EDT
Astronomical Twilight 5:24 AM EDT 8:00 PM EDT
Moon 10:34 PM EDT (10/6) 12:57 PM EDT (10/6)
Length of Visible Light 12h 24m
Length of Day
11h 28m
Waning Gibbous, 65% of the Moon is Illuminated
Oct 6
Waning Gibbous
Oct 8
Last Quarter
Oct 15
New
Oct 21
First Quarter
Oct 29
Full

Hourly Weather History & Observations

Time (EDT) Temp. Windchill Dew Point Humidity Pressure Visibility Wind Dir Wind Speed Gust Speed Precip Events Conditions
12:51 AM 63.0 °F - 62.1 °F 97% 29.87 in 10.0 mi Calm Calm - N/A   Scattered Clouds
1:51 AM 60.1 °F - 59.0 °F 96% 29.86 in 5.0 mi Calm Calm - N/A   Partly Cloudy
2:04 AM 60.8 °F - 59.0 °F 94% 29.86 in 3.0 mi Calm Calm - N/A Fog Patches of Fog
2:13 AM 60.8 °F - 59.0 °F 94% 29.86 in 1.0 mi Calm Calm - N/A Fog Patches of Fog
2:22 AM 59.0 °F - 59.0 °F 100% 29.86 in 0.2 mi Calm Calm - N/A Fog Fog
2:36 AM 60.8 °F - 59.0 °F 94% 29.85 in 0.5 mi Calm Calm - N/A Fog Fog
2:45 AM 60.8 °F - 59.0 °F 94% 29.84 in 0.8 mi South 3.5 mph - N/A   Overcast
2:49 AM 60.8 °F - 60.8 °F 100% 29.84 in 4.0 mi South 5.8 mph - N/A Fog Patches of Fog
2:51 AM 61.0 °F - 60.1 °F 97% 29.84 in 4.0 mi South 5.8 mph - N/A Fog Patches of Fog
3:51 AM 61.0 °F - 59.0 °F 93% 29.81 in 7.0 mi South 8.1 mph - N/A   Partly Cloudy
4:51 AM 61.0 °F - 57.9 °F 90% 29.80 in 7.0 mi South 11.5 mph - N/A   Mostly Cloudy
5:51 AM 61.0 °F - 57.9 °F 90% 29.78 in 10.0 mi SSE 12.7 mph - N/A   Mostly Cloudy
6:51 AM 61.0 °F - 57.0 °F 87% 29.77 in 7.0 mi South 11.5 mph - N/A   Mostly Cloudy
7:51 AM 60.8 °F - 57.2 °F 88% 29.77 in 7.0 mi South 11.5 mph - N/A   Overcast
8:51 AM 61.0 °F - 57.0 °F 87% 29.76 in 8.0 mi South 11.5 mph 19.6 mph N/A   Overcast
9:51 AM 64.9 °F - 57.9 °F 78% 29.74 in 10.0 mi South 11.5 mph 23.0 mph N/A   Mostly Cloudy
10:51 AM 66.0 °F - 57.9 °F 75% 29.75 in 10.0 mi WSW 8.1 mph - N/A   Overcast
11:15 AM 62.6 °F - 55.4 °F 77% 29.76 in 10.0 mi West 17.3 mph - 0.00 in Rain Light Rain
11:51 AM 59.0 °F - 52.0 °F 78% 29.78 in 10.0 mi WNW 12.7 mph - 0.00 in Rain Light Rain
12:33 PM 57.2 °F - 50.0 °F 77% 29.80 in 10.0 mi WNW 8.1 mph - 0.00 in   Overcast
12:51 PM 57.9 °F - 48.9 °F 72% 29.80 in 10.0 mi WNW 12.7 mph 19.6 mph 0.00 in   Overcast
1:51 PM 55.9 °F - 48.0 °F 75% 29.81 in 10.0 mi WNW 16.1 mph 23.0 mph N/A   Overcast
2:51 PM 55.9 °F - 48.0 °F 75% 29.83 in 10.0 mi WNW 10.4 mph 16.1 mph N/A   Overcast
2:58 PM 55.4 °F - 48.2 °F 77% 29.84 in 10.0 mi Variable 5.8 mph 16.1 mph N/A   Overcast
3:51 PM 55.4 °F - 46.4 °F 72% 29.86 in 10.0 mi WNW 9.2 mph 19.6 mph N/A   Mostly Cloudy
4:09 PM 55.4 °F - 46.4 °F 72% 29.87 in 10.0 mi West 11.5 mph 20.7 mph N/A   Mostly Cloudy
4:51 PM 55.9 °F - 46.0 °F 69% 29.88 in 10.0 mi West 8.1 mph - N/A   Mostly Cloudy
5:51 PM 55.4 °F - 44.6 °F 67% 29.88 in 10.0 mi West 4.6 mph - N/A   Scattered Clouds
6:51 PM 51.8 °F - 42.8 °F 71% 29.89 in 10.0 mi SW 3.5 mph - N/A   Scattered Clouds
7:51 PM 48.9 °F - 44.1 °F 83% 29.92 in 10.0 mi Calm Calm - N/A   Scattered Clouds
8:51 PM 50.0 °F - 39.0 °F 66% 29.95 in 10.0 mi West 8.1 mph - N/A   Partly Cloudy
9:51 PM 50.0 °F - 37.0 °F 61% 29.99 in 10.0 mi WNW 10.4 mph - N/A   Partly Cloudy
10:51 PM 46.9 °F - 35.1 °F 63% 30.00 in 10.0 mi West 5.8 mph - N/A   Partly Cloudy
11:51 PM 46.0 °F 43.1 °F 35.1 °F 66% 30.01 in 10.0 mi WNW 5.8 mph - N/A   Partly Cloudy